When you browse on this site, cookies collect data to enhance your experience and personalize the content and advertising you see.
Visit our Privacy Policy to learn more. By continuing to use the site, you agree to this use of cookies and data.
  • In Hungary
  • List of Countries
  • For 7 days
  • Water Temperature
  • Satellite Maps
  • Weather Map
  • News
  • Weather Widgets
  • user-avatar
    Login

    Hourly Weather Erumbal

    Today, 20 November, Tuesday

    Time Temperature Precipitation Wind Pressure Humidity
    00:00 -2°C° 0 mm 3 mps 757 mmHg 91%
    01:00 -4°C° 0 mm 3 mps 757 mmHg 91%
    02:00 -4°C° 0 mm 3 mps 757 mmHg 91%
    03:00 -5°C° 0 mm 3 mps 757 mmHg 91%
    04:00 -5°C° 0 mm 3 mps 757 mmHg 91%
    05:00 -5°C° 0 mm 3 mps 757 mmHg 91%
    06:00 -5°C° 0 mm 3 mps 757 mmHg 91%
    07:00 -4°C° 0 mm 2 mps 757 mmHg 90%
    08:00 -4°C° 0 mm 2 mps 757 mmHg 89%
    09:00 -4°C° 0 mm 2 mps 756 mmHg 87%
    10:00 -4°C° 0 mm 2 mps 756 mmHg 85%
    11:00 -4°C° 0 mm 2 mps 756 mmHg 82%
    12:00 -3°C° 0 mm 2 mps 756 mmHg 79%
    13:00 -4°C° 0 mm 2 mps 755 mmHg 79%
    14:00 -4°C° 0 mm 2 mps 755 mmHg 79%
    15:00 -4°C° 0 mm 2 mps 754 mmHg 80%
    16:00 -4°C° 0 mm 2 mps 754 mmHg 80%
    17:00 -4°C° 0 mm 2 mps 753 mmHg 81%
    18:00 -4°C° 0 mm 2 mps 753 mmHg 82%
    19:00 -5°C° 0.1 mm 3 mps 752 mmHg 84%
    20:00 -5°C° 0.1 mm 3 mps 752 mmHg 85%
    21:00 -5°C° 0.1 mm 4 mps 751 mmHg 87%
    22:00 -5°C° 0.1 mm 4 mps 750 mmHg 86%
    23:00 -5°C° 0.1 mm 4 mps 750 mmHg 85%

    Tomorrow, 21 November, Wednesday

    Time Temperature Precipitation Wind Pressure Humidity
    00:00 -6°C° 0.1 mm 5 mps 749 mmHg 85%
    01:00 -6°C° 0 mm 5 mps 748 mmHg 84%
    02:00 -6°C° 0 mm 5 mps 748 mmHg 83%
    03:00 -6°C° 0 mm 5 mps 747 mmHg 82%
    04:00 -6°C° 0.1 mm 5 mps 746 mmHg 83%
    05:00 -6°C° 0.1 mm 5 mps 746 mmHg 84%
    06:00 -6°C° 0.1 mm 5 mps 745 mmHg 85%
    07:00 -5°C° 0.1 mm 5 mps 744 mmHg 84%
    08:00 -5°C° 0.1 mm 5 mps 744 mmHg 83%
    09:00 -4°C° 0.1 mm 5 mps 744 mmHg 83%
    10:00 -4°C° 0.1 mm 6 mps 743 mmHg 78%
    11:00 -4°C° 0.1 mm 7 mps 743 mmHg 73%
    12:00 -4°C° 0.1 mm 7 mps 743 mmHg 68%
    13:00 -6°C° 0.1 mm 7 mps 743 mmHg 70%
    14:00 -7°C° 0.1 mm 7 mps 744 mmHg 72%
    15:00 -7°C° 0.1 mm 7 mps 744 mmHg 75%
    16:00 -8°C° 0 mm 7 mps 744 mmHg 74%
    17:00 -8°C° 0 mm 7 mps 744 mmHg 73%
    18:00 -8°C° 0 mm 6 mps 745 mmHg 72%
    19:00 -8°C° 0 mm 6 mps 745 mmHg 73%
    20:00 -9°C° 0 mm 6 mps 745 mmHg 73%
    21:00 -9°C° 0 mm 6 mps 745 mmHg 74%
    22:00 -9°C° 0 mm 6 mps 745 mmHg 75%
    23:00 -8°C° 0 mm 5 mps 745 mmHg 77%

    Day after tomorrow, 22 November, Thursday

    Time Temperature Precipitation Wind Pressure Humidity
    00:00 -10°C° 0 mm 5 mps 745 mmHg 79%
    01:00 -10°C° 0 mm 5 mps 745 mmHg 81%
    02:00 -10°C° 0 mm 5 mps 745 mmHg 84%
    03:00 -9°C° 0 mm 4 mps 745 mmHg 86%
    04:00 -9°C° 0 mm 4 mps 744 mmHg 86%
    05:00 -9°C° 0 mm 4 mps 744 mmHg 86%
    06:00 -9°C° 0 mm 4 mps 744 mmHg 87%
    07:00 -8°C° 0.1 mm 5 mps 743 mmHg 86%
    08:00 -8°C° 0.1 mm 5 mps 742 mmHg 85%
    09:00 -7°C° 0.1 mm 5 mps 742 mmHg 85%
    10:00 -8°C° 0.5 mm 6 mps 741 mmHg 86%
    11:00 -8°C° 0.5 mm 6 mps 740 mmHg 87%
    12:00 -6°C° 0.5 mm 6 mps 739 mmHg 88%
    13:00 -6°C° 0.4 mm 6 mps 738 mmHg 87%
    14:00 -6°C° 0.4 mm 6 mps 737 mmHg 87%
    15:00 -6°C° 0.4 mm 7 mps 736 mmHg 86%
    16:00 -5°C° 0.4 mm 6 mps 736 mmHg 86%
    17:00 -5°C° 0.4 mm 6 mps 736 mmHg 85%
    18:00 -5°C° 0.4 mm 5 mps 736 mmHg 85%
    19:00 -6°C° 0.1 mm 5 mps 736 mmHg 87%
    20:00 -5°C° 0.1 mm 4 mps 736 mmHg 88%
    21:00 -6°C° 0.1 mm 3 mps 735 mmHg 90%
    22:00 -8°C° 0 mm 4 mps 736 mmHg 87%
    23:00 -10°C° 0 mm 5 mps 737 mmHg 84%

    23 November, Friday

    Time Temperature Precipitation Wind Pressure Humidity
    00:00 -11°C° 0 mm 5 mps 737 mmHg 81%
    01:00 -11°C° 0 mm 5 mps 739 mmHg 81%
    02:00 -12°C° 0 mm 5 mps 740 mmHg 81%
    03:00 -14°C° 0 mm 6 mps 741 mmHg 81%
    04:00 -13°C° 0 mm 5 mps 742 mmHg 83%
    05:00 -13°C° 0 mm 5 mps 743 mmHg 84%
    06:00 -13°C° 0 mm 5 mps 744 mmHg 86%
    07:00 -12°C° 0 mm 4 mps 745 mmHg 85%
    08:00 -11°C° 0 mm 4 mps 746 mmHg 85%
    09:00 -10°C° 0 mm 4 mps 747 mmHg 84%
    10:00 -11°C° 0.1 mm 5 mps 748 mmHg 82%
    11:00 -11°C° 0.1 mm 5 mps 748 mmHg 80%
    12:00 -10°C° 0.1 mm 5 mps 749 mmHg 78%
    13:00 -9°C° 0 mm 4 mps 749 mmHg 79%
    14:00 -10°C° 0 mm 4 mps 750 mmHg 80%
    15:00 -10°C° 0 mm 4 mps 750 mmHg 81%
    16:00 -11°C° 0 mm 4 mps 751 mmHg 82%
    17:00 -11°C° 0 mm 4 mps 751 mmHg 83%
    18:00 -12°C° 0 mm 4 mps 751 mmHg 85%
    19:00 -12°C° 0 mm 4 mps 752 mmHg 86%
    20:00 -12°C° 0 mm 4 mps 752 mmHg 87%
    21:00 -12°C° 0 mm 4 mps 752 mmHg 88%
    22:00 -12°C° 0 mm 4 mps 752 mmHg 88%
    23:00 -12°C° 0 mm 4 mps 751 mmHg 88%

    24 November, Saturday

    Time Temperature Precipitation Wind Pressure Humidity
    00:00 -12°C° 0 mm 4 mps 751 mmHg 87%
    01:00 -12°C° 0 mm 4 mps 751 mmHg 88%
    02:00 -12°C° 0 mm 5 mps 750 mmHg 88%
    03:00 -12°C° 0 mm 5 mps 750 mmHg 88%
    04:00 -12°C° 0 mm 5 mps 749 mmHg 88%
    05:00 -12°C° 0 mm 5 mps 749 mmHg 88%
    06:00 -11°C° 0 mm 6 mps 748 mmHg 88%
    07:00 -11°C° 0 mm 6 mps 748 mmHg 87%
    08:00 -11°C° 0 mm 6 mps 747 mmHg 86%
    09:00 -11°C° 0 mm 7 mps 746 mmHg 85%
    10:00 -9°C° 0.1 mm 7 mps 746 mmHg 83%
    11:00 -9°C° 0.1 mm 7 mps 745 mmHg 82%
    12:00 -8°C° 0.1 mm 7 mps 744 mmHg 80%
    13:00 -7°C° 0.1 mm 7 mps 744 mmHg 80%
    14:00 -7°C° 0.1 mm 7 mps 743 mmHg 80%
    15:00 -7°C° 0.1 mm 7 mps 743 mmHg 80%
    16:00 -6°C° 0 mm 7 mps 743 mmHg 81%
    17:00 -6°C° 0 mm 7 mps 743 mmHg 81%
    18:00 -6°C° 0 mm 8 mps 743 mmHg 82%
    19:00 -6°C° 0.1 mm 7 mps 743 mmHg 83%
    20:00 -6°C° 0.1 mm 7 mps 743 mmHg 83%
    21:00 -4°C° 0.1 mm 7 mps 743 mmHg 84%
    22:00 -5°C° 0 mm 6 mps 744 mmHg 85%
    23:00 -5°C° 0 mm 6 mps 744 mmHg 85%

    25 November, Sunday

    Time Temperature Precipitation Wind Pressure Humidity
    00:00 -5°C° 0 mm 6 mps 745 mmHg 86%
    01:00 -6°C° 0 mm 5 mps 745 mmHg 87%
    02:00 -6°C° 0 mm 5 mps 746 mmHg 88%
    03:00 -7°C° 0 mm 5 mps 746 mmHg 89%
    04:00 -7°C° 0 mm 5 mps 746 mmHg 90%
    05:00 -8°C° 0 mm 4 mps 747 mmHg 91%
    06:00 -8°C° 0 mm 4 mps 747 mmHg 92%
    07:00 -8°C° 0 mm 4 mps 747 mmHg 92%
    08:00 -8°C° 0 mm 4 mps 747 mmHg 92%
    09:00 -8°C° 0 mm 4 mps 748 mmHg 92%
    10:00 -7°C° 0 mm 4 mps 748 mmHg 91%
    11:00 -7°C° 0 mm 4 mps 748 mmHg 89%
    12:00 -5°C° 0 mm 4 mps 748 mmHg 88%
    13:00 -5°C° 0 mm 4 mps 748 mmHg 88%
    14:00 -5°C° 0 mm 4 mps 748 mmHg 87%
    15:00 -5°C° 0 mm 4 mps 748 mmHg 87%
    16:00 -7°C° 0 mm 4 mps 748 mmHg 88%
    17:00 -6°C° 0 mm 3 mps 748 mmHg 88%
    18:00 -6°C° 0 mm 3 mps 749 mmHg 89%
    19:00 -6°C° 0 mm 3 mps 749 mmHg 90%
    20:00 -6°C° 0 mm 3 mps 749 mmHg 90%
    21:00 -6°C° 0 mm 3 mps 749 mmHg 91%
    22:00 -6°C° 0 mm 3 mps 749 mmHg 92%
    23:00 -6°C° 0 mm 2 mps 749 mmHg 93%
    Show more